Tiempo cada hora Murovanye Kurilovcy

Hoy, 23 Octubre, Viernes

Tiempo Temperatura Precipitaciones Viento Presión Humedad
00:00 +11°C° 0 mm 0 mps 741 mmHg 53%
01:00 +11°C° 0 mm 0 mps 741 mmHg 54%
02:00 +11°C° 0 mm 0 mps 741 mmHg 54%
03:00 +10°C° 0 mm 0 mps 741 mmHg 54%
04:00 +10°C° 0 mm 0 mps 741 mmHg 55%
05:00 +11°C° 0 mm 1 mps 740 mmHg 56%
06:00 +11°C° 0 mm 1 mps 740 mmHg 56%
07:00 +11°C° 0 mm 1 mps 740 mmHg 56%
08:00 +12°C° 0 mm 1 mps 740 mmHg 56%
09:00 +13°C° 0 mm 1 mps 740 mmHg 51%
10:00 +15°C° 0 mm 1 mps 740 mmHg 46%
11:00 +16°C° 0 mm 2 mps 740 mmHg 41%
12:00 +17°C° 0 mm 2 mps 739 mmHg 41%
13:00 +18°C° 0 mm 2 mps 739 mmHg 41%
14:00 +18°C° 0 mm 2 mps 739 mmHg 41%
15:00 +17°C° 0 mm 2 mps 738 mmHg 46%
16:00 +16°C° 0 mm 2 mps 738 mmHg 52%
17:00 +15°C° 0 mm 1 mps 738 mmHg 57%
18:00 +14°C° 0 mm 1 mps 738 mmHg 58%
19:00 +14°C° 0 mm 1 mps 738 mmHg 60%
20:00 +12°C° 0 mm 0 mps 738 mmHg 61%
21:00 +12°C° 0 mm 0 mps 738 mmHg 62%
22:00 +12°C° 0 mm 0 mps 738 mmHg 63%
23:00 +12°C° 0 mm 0 mps 738 mmHg 64%

Mañana, 24 Octubre, Sábado

Tiempo Temperatura Precipitaciones Viento Presión Humedad
00:00 +12°C° 0 mm 0 mps 738 mmHg 66%
01:00 +11°C° 0 mm 0 mps 738 mmHg 67%
02:00 +11°C° 0 mm 0 mps 738 mmHg 69%
03:00 +11°C° 0 mm 0 mps 738 mmHg 71%
04:00 +11°C° 0 mm 0 mps 737 mmHg 72%
05:00 +10°C° 0 mm 0 mps 737 mmHg 74%
06:00 +12°C° 0 mm 1 mps 737 mmHg 73%
07:00 +12°C° 0 mm 1 mps 737 mmHg 72%
08:00 +13°C° 0 mm 1 mps 737 mmHg 71%
09:00 +14°C° 0 mm 2 mps 737 mmHg 68%
10:00 +15°C° 0 mm 2 mps 737 mmHg 64%
11:00 +16°C° 0 mm 3 mps 737 mmHg 61%
12:00 +16°C° 0 mm 2 mps 737 mmHg 61%
13:00 +16°C° 0 mm 2 mps 737 mmHg 61%
14:00 +16°C° 0 mm 2 mps 736 mmHg 61%
15:00 +15°C° 0 mm 2 mps 737 mmHg 62%
16:00 +15°C° 0 mm 2 mps 737 mmHg 62%
17:00 +14°C° 0 mm 2 mps 737 mmHg 63%
18:00 +14°C° 0 mm 2 mps 737 mmHg 69%
19:00 +12°C° 0 mm 3 mps 737 mmHg 74%
20:00 +11°C° 0 mm 3 mps 738 mmHg 80%
21:00 +11°C° 0 mm 3 mps 738 mmHg 83%
22:00 +11°C° 0 mm 3 mps 738 mmHg 87%
23:00 +11°C° 0 mm 4 mps 739 mmHg 90%

Pasado mañana, 25 Octubre, Domingo

Tiempo Temperatura Precipitaciones Viento Presión Humedad
00:00 +11°C° 0 mm 4 mps 739 mmHg 91%
01:00 +11°C° 0 mm 3 mps 739 mmHg 91%
02:00 +11°C° 0 mm 3 mps 739 mmHg 92%
03:00 +11°C° 0 mm 4 mps 740 mmHg 90%
04:00 +11°C° 0 mm 4 mps 740 mmHg 88%
05:00 +11°C° 0 mm 4 mps 741 mmHg 85%
06:00 +10°C° 0 mm 3 mps 741 mmHg 87%
07:00 +10°C° 0 mm 3 mps 741 mmHg 88%
08:00 +9°C° 0 mm 3 mps 741 mmHg 89%
09:00 +11°C° 0 mm 3 mps 741 mmHg 82%
10:00 +14°C° 0 mm 2 mps 742 mmHg 75%
11:00 +15°C° 0 mm 2 mps 742 mmHg 68%
12:00 +16°C° 0 mm 2 mps 742 mmHg 65%
13:00 +16°C° 0 mm 2 mps 741 mmHg 62%
14:00 +17°C° 0 mm 2 mps 741 mmHg 58%
15:00 +16°C° 0 mm 1 mps 741 mmHg 62%
16:00 +15°C° 0 mm 1 mps 741 mmHg 66%
17:00 +14°C° 0 mm 1 mps 741 mmHg 70%
18:00 +13°C° 0 mm 1 mps 741 mmHg 73%
19:00 +13°C° 0 mm 1 mps 742 mmHg 76%
20:00 +12°C° 0 mm 2 mps 742 mmHg 80%
21:00 +12°C° 0 mm 2 mps 742 mmHg 82%
22:00 +10°C° 0 mm 2 mps 742 mmHg 84%
23:00 +10°C° 0 mm 2 mps 742 mmHg 86%

26 Octubre, Lunes

Tiempo Temperatura Precipitaciones Viento Presión Humedad
00:00 +9°C° 0 mm 2 mps 742 mmHg 87%
01:00 +9°C° 0 mm 3 mps 742 mmHg 89%
02:00 +9°C° 0 mm 3 mps 741 mmHg 90%
03:00 +9°C° 0 mm 3 mps 741 mmHg 91%
04:00 +8°C° 0 mm 3 mps 741 mmHg 91%
05:00 +8°C° 0 mm 3 mps 741 mmHg 92%
06:00 +9°C° 0 mm 3 mps 741 mmHg 90%
07:00 +8°C° 0 mm 4 mps 741 mmHg 88%
08:00 +8°C° 0 mm 4 mps 741 mmHg 86%
09:00 +9°C° 0 mm 5 mps 741 mmHg 82%
10:00 +12°C° 0 mm 5 mps 741 mmHg 79%
11:00 +13°C° 0 mm 5 mps 741 mmHg 75%
12:00 +13°C° 0 mm 5 mps 740 mmHg 73%
13:00 +14°C° 0 mm 5 mps 740 mmHg 71%
14:00 +15°C° 0 mm 5 mps 739 mmHg 69%
15:00 +14°C° 0 mm 5 mps 739 mmHg 71%
16:00 +14°C° 0 mm 4 mps 739 mmHg 73%
17:00 +14°C° 0 mm 4 mps 739 mmHg 75%
18:00 +14°C° 0.1 mm 4 mps 739 mmHg 77%
19:00 +13°C° 0.1 mm 4 mps 739 mmHg 80%
20:00 +13°C° 0.1 mm 4 mps 739 mmHg 82%
21:00 +13°C° 0 mm 4 mps 739 mmHg 82%
22:00 +13°C° 0 mm 4 mps 739 mmHg 82%
23:00 +13°C° 0 mm 4 mps 739 mmHg 82%

27 Octubre, Martes

Tiempo Temperatura Precipitaciones Viento Presión Humedad
00:00 +13°C° 0 mm 4 mps 738 mmHg 82%
01:00 +13°C° 0 mm 4 mps 738 mmHg 82%
02:00 +13°C° 0 mm 4 mps 738 mmHg 83%
03:00 +13°C° 0 mm 4 mps 738 mmHg 84%
04:00 +12°C° 0 mm 4 mps 738 mmHg 86%
05:00 +12°C° 0 mm 4 mps 738 mmHg 88%
06:00 +12°C° 0 mm 4 mps 739 mmHg 89%
07:00 +13°C° 0 mm 4 mps 739 mmHg 89%
08:00 +13°C° 0 mm 4 mps 739 mmHg 89%
09:00 +13°C° 0 mm 4 mps 739 mmHg 87%
10:00 +14°C° 0 mm 4 mps 739 mmHg 85%
11:00 +15°C° 0 mm 4 mps 739 mmHg 82%
12:00 +17°C° 0 mm 4 mps 739 mmHg 79%
13:00 +17°C° 0 mm 4 mps 739 mmHg 76%
14:00 +18°C° 0 mm 4 mps 739 mmHg 74%
15:00 +18°C° 0 mm 3 mps 739 mmHg 77%
16:00 +17°C° 0 mm 3 mps 739 mmHg 80%
17:00 +16°C° 0 mm 2 mps 739 mmHg 83%
18:00 +16°C° 0 mm 3 mps 739 mmHg 85%
19:00 +16°C° 0 mm 3 mps 739 mmHg 87%
20:00 +16°C° 0 mm 3 mps 739 mmHg 88%
21:00 +16°C° 0 mm 3 mps 739 mmHg 85%
22:00 +15°C° 0 mm 4 mps 739 mmHg 82%
23:00 +15°C° 0 mm 4 mps 739 mmHg 79%

28 Octubre, Miércoles

Tiempo Temperatura Precipitaciones Viento Presión Humedad
00:00 +14°C° 0 mm 4 mps 739 mmHg 81%
01:00 +13°C° 0 mm 4 mps 739 mmHg 83%
02:00 +12°C° 0 mm 4 mps 739 mmHg 85%
03:00 +12°C° 0 mm 4 mps 739 mmHg 87%
04:00 +11°C° 0 mm 4 mps 739 mmHg 90%
05:00 +11°C° 0 mm 4 mps 738 mmHg 92%
06:00 +11°C° 0 mm 4 mps 738 mmHg 92%
07:00 +11°C° 0 mm 4 mps 738 mmHg 92%
08:00 +11°C° 0 mm 4 mps 738 mmHg 91%
09:00 +12°C° 0 mm 4 mps 738 mmHg 88%
10:00 +13°C° 0 mm 4 mps 738 mmHg 84%
11:00 +14°C° 0 mm 4 mps 738 mmHg 81%
12:00 +14°C° 0 mm 4 mps 738 mmHg 76%
13:00 +15°C° 0 mm 4 mps 738 mmHg 71%
14:00 +17°C° 0 mm 4 mps 738 mmHg 66%
15:00 +15°C° 0 mm 4 mps 738 mmHg 69%
16:00 +14°C° 0 mm 3 mps 738 mmHg 72%
17:00 +13°C° 0 mm 3 mps 737 mmHg 74%
18:00 +13°C° 0 mm 3 mps 737 mmHg 76%
19:00 +12°C° 0 mm 3 mps 737 mmHg 77%
20:00 +12°C° 0 mm 3 mps 737 mmHg 79%
21:00 +11°C° 0 mm 3 mps 737 mmHg 78%
22:00 +11°C° 0 mm 3 mps 737 mmHg 78%
23:00 +11°C° 0 mm 3 mps 737 mmHg 77%
Mostrar más

Necesitamos Su Consentimiento

Meteoprog y nuestros Proveedores de Servicios pueden almacenar y acceder a sus datos personales como cookies, identificadores de dispositivo u otras tecnologías similares de su dispositivo y procesar dichos datos para personalizar contenido y anuncios, además de ofrecer funciones de redes sociales y analizar el tráfico.

  • Almacenar y/o acceder a información en su dispositivo

    Se puede almacenar o acceder a cookies, identificadores de dispositivo u otra información de su dispositivo para los fines anteriormente indicados.

  • Anuncios y contenido personalizados, medición de anuncios y contenido, percepciones del público, y desarrollo de productos

    Los anuncios y el contenido pueden personalizarse en base a su perfil. Se pueden añadir más datos para personalizar mejor los anuncios y contenidos. Se puede medir el rendimiento de los anuncios y contenidos. Se puede obtener la percepción sobre el público que ha visto los anuncios y contenidos. Dichos datos pueden usarse para desarrollar o mejorar la experiencia del usuario, sistemas y software.

Al hacer clic en ‘Estoy De Acuerdo’ usted permitirá el uso de las cookies, identificadores de dispositivo, balizas web u otras tecnologías similares indicadas. Su configuración puede cambiarse desde el navegador de su dispositivo.

Para ciertos fines, los intereses legítimos pueden ser considerados por encima del consentimiento. Puede leer más sobre ello en nuestra Política de Privacidad y Cookies.